Regional Weather Roundup
Issued by NWS

Home | Current Version | Previous Version | Text Only | Print | Product List | Glossary On
Versions: 1 2 3 4 5 6 7 8 9 10 11 12 13 14 15 16 17 18 19 20 21 22 23 24 25 26 27 28 29 30 31 32 33 34 35 36 37 38 39 40 41 42 43 44 45 46 47 48 49 50
000
ASUS43 KFSD 240110
RWRSD

WEATHER ROUNDUP FOR SOUTH DAKOTA
NATIONAL WEATHER SERVICE SIOUX FALLS SD
700 PM CST THU FEB 23 2017

NOTE: "FAIR" INDICATES FEW OR NO CLOUDS BELOW 12,000 FEET WITH NO
SIGNIFICANT WEATHER AND/OR OBSTRUCTIONS TO VISIBILITY.


SDZ001>005-009-010-012>017-240200-
NORTHWEST AND NORTH CENTRAL SOUTH DAKOTA

CITY           SKY/WX    TMP DP  RH WIND       PRES   REMARKS
BUFFALO          N/A     28  25  88 NE17      29.92R WCI  16
FAITH            N/A     28  23  81 NE21      29.96R WCI  15
MOBRIDGE       CLOUDY    32  22  66 NE14G21   29.98R WCI  22
$$

SDZ012>016-024>037-041>051-057-063-072>074-240200-
SOUTHWEST AND SOUTH CENTRAL SOUTH DAKOTA

CITY           SKY/WX    TMP DP  RH WIND       PRES   REMARKS
RAPID CTY ARPT LGT SNOW  27  24  89 N12       29.93R FOG     WCI  17
PIERRE         CLOUDY    28  21  75 NE23G35   29.93R WCI  14
CUSTER         LGT SNOW  18  13  80 NE12      29.79R WCI   5
ELLSWORTH AFB  FLURRIES  27  27 100 N12       29.93  WCI  16
PHILIP         CLOUDY    29  23  78 NE16      29.95R WCI  17
PINE RIDGE     LGT SNOW  26  23  88 NE16      29.86R VSB 1   WCI  14
SPEARFISH      FLURRIES  25  23  93 NE5       29.93R WCI  19
WINNER         LGT SNOW  28  24  85 N22       29.88R FOG     WCI  14
$$

SDZ004>011-016>023-039-040-240200-
NORTHEAST SOUTH DAKOTA

CITY           SKY/WX    TMP DP  RH WIND       PRES   REMARKS
ABERDEEN       CLOUDY    28  20  71 NE20      30.00S WCI  15
WATERTOWN      CLOUDY    26  21  81 NE22G31   29.88F WCI  12
SISSETON         N/A     27  22  81 NE25      30.00F WCI  12
$$

SDZ017-020-022-023-036>040-048>070-240200-
SOUTHEAST SOUTH DAKOTA

CITY           SKY/WX    TMP DP  RH WIND       PRES   REMARKS
SIOUX FALLS    LGT SNOW  30  27  88 NE21G30   29.82R FOG     WCI  17
HURON          CLOUDY    29  22  75 NE23      29.90S WCI  15
CHAMBERLAIN    CLOUDY    30  26  84 N16G28    29.90R WCI  18
MITCHELL       CLOUDY    30  25  81 N25       29.86R WCI  16
YANKTON        CLOUDY    30  27  86 N14G22    29.80R VSB 1/2 WCI  20
$$

ABBREVIATIONS USED IN REMARKS
   TC - TEMPERATURE IN CELSIUS
  WCI - WIND CHILL INDEX
   HX - HEAT INDEX
  VSB - VISIBILITY




USA.gov is the U.S. government's official web portal to all federal, state and local government web resources and services.